Location: Peterborough
(44.3091°N, 78.3197°W)
Time: 05:28:37
(UTC-04:00)

Vanguard 3 - Pass Details

Date: 23 March 2023
Orbit: 507 x 3246 km, 33.4° (Epoch: 04 June)

Event Time Altitude Azimuth Distance (km) Brightness Sun altitude
Rises 09:21:55 0° 273° (W) 7,042 11.4 22.1°
Reaches altitude 10° 09:27:22 10° 268° (W) 5,783 11.0 23.0°
Maximum altitude 09:42:09 41° 206° (SSW) 2,866 10.2 25.4°
Drops below altitude 10° 09:51:26 10° 141° (SE) 3,672 11.8 26.9°
Sets 09:54:05 0° 133° (SE) 4,334 12.1 27.3°
